Weather History for Queretaro Airport, Mexico

Change the Weather History Date:

Thursday, September 20, 2012

  Actual Average Record
Temperature  
Mean Temperature 63 °F -  
Max Temperature 78 °F 76 °F 85 °F (2013)
Min Temperature 48 °F 55 °F 46 °F (2006)
Degree Days  
Heating Degree Days 2    
Growing Degree Days 13 (Base 50)    
Moisture  
Dew Point 51 °F    
Average Humidity 65    
Maximum Humidity 88    
Minimum Humidity 23    
Precipitation  
Precipitation 0.00 in - - ()
Sea Level Pressure  
Sea Level Pressure 30.20 in    
Wind  
Wind Speed 8 mph ()    
Max Wind Speed 18 mph    
Max Gust Speed -    
Visibility 7.0 miles    
Events      
Averages and records for this station are not official NWS values.
T = Trace of Precipitation, MM = Missing Value Source: Averaged Metar Reports

Daily Weather History Graph

Daily Weather History Graph

Search for Another Location

Airport:

Trip Planner

Search our weather history database for the weather conditions in past years. The results will help you decide how hot, cold, wet, or windy it might be!

Date:

Astronomy

Sep. 20, 2012 Rise Set
Actual Time 7:29 AM CDT 7:38 PM CDT
Civil Twilight 7:07 AM CDT 8:00 PM CDT
Nautical Twilight 6:41 AM CDT 8:26 PM CDT
Astronomical Twilight 6:15 AM CDT 8:51 PM CDT
Moon 12:05 PM CDT (9/20) 11:26 PM CDT (9/20)
Length of Visible Light 12h 53m
Length of Day
12h 09m
Waxing Crescent, 27% of the Moon is Illuminated
Sep 20
Waxing Crescent
Sep 22
First Quarter
Sep 29
Full
Oct 8
Last Quarter
Oct 15
New

Hourly Weather History & Observations

Time (CDT) Temp. Dew Point Humidity Pressure Visibility Wind Dir Wind Speed Gust Speed Precip Events Conditions
12:45 AM 59 °F 51 °F 66% 29.89 in 6 mi East 8.9 mph - -  
12:45 AM 59.0 °F 55.4 °F 88% 30.38 in 7.0 mi ENE 4.6 mph - N/A   Partly Cloudy
1:45 AM 62.6 °F 55.4 °F 77% 30.38 in 7.0 mi ENE 4.6 mph - N/A   Scattered Clouds
2:50 AM 55.4 °F 51.8 °F 88% 30.38 in 7.0 mi East 8.1 mph - N/A   Clear
3:45 AM 58 °F 52 °F 73% 29.96 in 6 mi East 4.5 mph - -  
3:45 AM 55.4 °F 51.8 °F 88% 30.37 in 7.0 mi ENE 8.1 mph - N/A   Clear
4:45 AM 51.8 °F 48.2 °F 88% 30.35 in 7.0 mi ENE 6.9 mph - N/A   Partly Cloudy
5:45 AM 53.6 °F 50.0 °F 88% 30.35 in 7.0 mi ENE 6.9 mph - N/A   Partly Cloudy
6:40 AM 54 °F 49 °F 79% 29.96 in 3 mi East 15.7 mph - -   Scattered Clouds
6:45 AM 51.8 °F 48.2 °F 88% 30.33 in 8.0 mi NE 6.9 mph - N/A   Scattered Clouds
7:45 AM 48.2 °F 44.6 °F 87% 30.33 in 7.0 mi East 5.8 mph - N/A   Mostly Cloudy
8:45 AM 57.2 °F 51.8 °F 82% 30.34 in 8.0 mi ENE 12.7 mph - N/A   Mostly Cloudy
9:40 AM 61 °F 49 °F 54% 30.00 in 3 mi East 17.9 mph - -   Clear
9:45 AM 60.8 °F 50.0 °F 68% 30.37 in 7.0 mi ENE 11.5 mph - N/A   Mostly Cloudy
10:45 AM 66.2 °F 50.0 °F 56% 30.37 in 8.0 mi ENE 16.1 mph - N/A   Scattered Clouds
11:40 AM 68.0 °F 51.8 °F 56% 30.36 in 8.0 mi East 15.0 mph - N/A   Scattered Clouds
12:40 PM 72 °F 47 °F 30% 29.94 in 6 mi East 6.7 mph - -   Partly Cloudy
12:45 PM 68.0 °F 51.8 °F 56% 30.35 in 10.0 mi NE 11.5 mph - N/A   Mostly Cloudy
1:45 PM 71.6 °F 51.8 °F 50% 30.31 in 10.0 mi East 12.7 mph - N/A   Scattered Clouds
2:45 PM 71.6 °F 53.6 °F 53% 30.26 in 10.0 mi East 5.8 mph - N/A   Mostly Cloudy
3:45 PM 73.4 °F 53.6 °F 50% 30.26 in 6.0 mi ENE 9.2 mph - N/A   Scattered Clouds
3:50 PM 78 °F 47 °F 23% 29.81 in 6 mi East 6.7 mph - -   Partly Cloudy
4:45 PM 75.2 °F 53.6 °F 47% 30.22 in 10.0 mi ENE 11.5 mph - N/A   Scattered Clouds
5:45 PM 73.4 °F 50.0 °F 44% 30.22 in 7.0 mi East 13.8 mph - N/A   Scattered Clouds
6:45 PM - - N/A% 30.22 in 7.0 mi NNE 11.5 mph - N/A   Scattered Clouds
6:50 PM 73 °F 45 °F 25% 29.72 in 6 mi NE 8.9 mph - -   Scattered Clouds
7:45 PM 66.2 °F 53.6 °F 64% 30.22 in 7.0 mi NNE 11.5 mph - N/A   Scattered Clouds
8:45 PM 62.6 °F 50.0 °F 63% 30.23 in 7.0 mi NE 9.2 mph - N/A   Scattered Clouds
9:45 PM 60.8 °F 50.0 °F 68% 30.22 in 7.0 mi East 9.2 mph - N/A   Scattered Clouds
9:50 PM 63 °F 49 °F 50% 29.74 in 6 mi SE 11.2 mph - -   Partly Cloudy
10:45 PM 57.2 °F 50.0 °F 77% 30.25 in 7.0 mi ESE 6.9 mph - N/A   Scattered Clouds
11:45 PM 55.4 °F 50.0 °F 82% 30.32 in 7.0 mi East 9.2 mph - N/A   Scattered Clouds